| time (UTC) | temp F | wind direction | speed MPH | gust MPH | rain 1hr in | rain 24hr in | rain mn in | humidity % | barometer mb |
| 20260904044546 | 52 | 286 | 2.0 | 3.0 | 0.00 | 0.00 | 0.00 | 65 | 1011.4 |
| 20260904043056 | 52 | 286 | 1.0 | 2.0 | 0.00 | 0.00 | 0.00 | 64 | 1011.3 |
| 20260904041543 | 51 | 286 | 1.0 | 3.0 | 0.00 | 0.00 | 0.00 | 65 | 1011.1 |
| 20260904040043 | 51 | 286 | 2.0 | 3.0 | 0.00 | 0.00 | 0.00 | 63 | 1011.0 |
| 20260904034549 | 52 | 286 | 2.0 | 5.0 | 0.00 | 0.00 | 0.00 | 62 | 1010.9 |
| 20260904033042 | 51 | 355 | 0.0 | 2.0 | 0.00 | 0.00 | 0.00 | 62 | 1011.1 |
| 20260904031544 | 53 | 355 | 2.0 | 4.0 | 0.00 | 0.00 | 0.00 | 59 | 1011.1 |
| 20260904030040 | 56 | 355 | 1.0 | 4.0 | 0.00 | 0.00 | 0.00 | 54 | 1011.1 |
| 20260904024538 | 58 | 355 | 3.0 | 5.0 | 0.00 | 0.00 | 0.00 | 51 | 1010.9 |
| 20260904023035 | 58 | 320 | 1.0 | 3.0 | 0.00 | 0.00 | 0.00 | 51 | 1010.7 |
| 20260904021540 | 60 | 327 | 2.0 | 6.0 | 0.00 | 0.00 | 0.00 | 49 | 1010.4 |
| 20260904020034 | 62 | 345 | 6.0 | 9.0 | 0.00 | 0.00 | 0.00 | 46 | 1010.3 |
| 20260904014539 | 64 | 355 | 4.0 | 6.0 | 0.00 | 0.00 | 0.00 | 44 | 1010.4 |
| 20260904013032 | 66 | 336 | 4.0 | 10.0 | 0.00 | 0.00 | 0.00 | 42 | 1010.3 |
| 20260904011534 | 68 | 298 | 6.0 | 9.0 | 0.00 | 0.00 | 0.00 | 40 | 1010.4 |
| 20260904010032 | 69 | 318 | 6.0 | 11.0 | 0.00 | 0.00 | 0.00 | 39 | 1010.3 |
| 20260904004534 | 70 | 297 | 5.0 | 11.0 | 0.00 | 0.00 | 0.00 | 38 | 1010.3 |
| 20260904003032 | 70 | 291 | 8.0 | 13.0 | 0.00 | 0.00 | 0.00 | 37 | 1010.2 |
| 20260904001529 | 71 | 279 | 10.0 | 16.0 | 0.00 | 0.00 | 0.00 | 37 | 1010.2 |
| 20260904000106 | 72 | 288 | 8.0 | 14.0 | 0.00 | 0.00 | 0.00 | 35 | 1010.0 |
| 20260903234524 | 72 | 265 | 8.0 | 17.0 | 0.00 | 0.03 | 0.00 | 36 | 1009.8 |
| 20260903233022 | 73 | 285 | 7.0 | 17.0 | 0.00 | 0.03 | 0.00 | 36 | 1009.8 |
| 20260903231522 | 73 | 283 | 6.0 | 18.0 | 0.00 | 0.03 | 0.00 | 36 | 1009.9 |
| 20260903230025 | 73 | 271 | 6.0 | 18.0 | 0.00 | 0.03 | 0.00 | 37 | 1009.8 |
| 20260903224536 | 74 | 296 | 7.0 | 18.0 | 0.00 | 0.06 | 0.00 | 37 | 1009.6 |
| 20260903223019 | 73 | 298 | 6.0 | 14.0 | 0.00 | 0.06 | 0.00 | 39 | 1009.3 |
| 20260903221520 | 73 | 281 | 9.0 | 18.0 | 0.00 | 0.06 | 0.00 | 37 | 1009.3 |
| 20260903220019 | 73 | 284 | 3.0 | 10.0 | 0.00 | 0.06 | 0.00 | 36 | 1009.1 |
| 20260903214525 | 75 | 298 | 2.0 | 11.0 | 0.00 | 0.06 | 0.00 | 35 | 1009.0 |
| 20260903213031 | 75 | 294 | 5.0 | 12.0 | 0.00 | 0.06 | 0.00 | 34 | 1008.9 |
| 20260903211516 | 74 | 284 | 4.0 | 10.0 | 0.00 | 0.06 | 0.00 | 36 | 1008.8 |
| 20260903210015 | 75 | 263 | 7.0 | 16.0 | 0.00 | 0.06 | 0.00 | 33 | 1008.8 |
| 20260903204513 | 73 | 246 | 4.0 | 12.0 | 0.00 | 0.06 | 0.00 | 37 | 1008.8 |
| 20260903203011 | 74 | 277 | 3.0 | 12.0 | 0.00 | 0.06 | 0.00 | 35 | 1009.0 |
| 20260903201509 | 72 | 242 | 3.0 | 11.0 | 0.00 | 0.06 | 0.00 | 39 | 1009.0 |
| 20260903200008 | 71 | 207 | 4.0 | 10.0 | 0.00 | 0.06 | 0.00 | 39 | 1009.1 |
| 20260903194510 | 72 | 275 | 6.0 | 13.0 | 0.00 | 0.06 | 0.00 | 39 | 1009.1 |
| 20260903193005 | 71 | 239 | 9.0 | 16.0 | 0.00 | 0.06 | 0.00 | 38 | 1009.1 |
| 20260903191507 | 72 | 266 | 4.0 | 19.0 | 0.00 | 0.06 | 0.00 | 39 | 1009.1 |
| 20260903190002 | 73 | 238 | 8.0 | 31.0 | 0.00 | 0.06 | 0.00 | 37 | 1009.0 |
| 20260903184600 | 73 | 219 | 5.0 | 17.0 | 0.00 | 0.06 | 0.00 | 38 | 1008.9 |
| 20260903183057 | 71 | 213 | 10.0 | 15.0 | 0.00 | 0.06 | 0.00 | 38 | 1008.9 |
| 20260903181555 | 71 | 255 | 6.0 | 18.0 | 0.00 | 0.06 | 0.00 | 39 | 1008.9 |
| 20260903180053 | 70 | 192 | 14.0 | 20.0 | 0.00 | 0.06 | 0.00 | 41 | 1009.1 |
| 20260903174549 | 69 | 230 | 10.0 | 16.0 | 0.00 | 0.06 | 0.00 | 43 | 1009.2 |
| 20260903173048 | 69 | 187 | 7.0 | 14.0 | 0.00 | 0.06 | 0.00 | 47 | 1009.3 |
| 20260903171541 | 67 | 213 | 6.0 | 9.0 | 0.00 | 0.06 | 0.00 | 51 | 1009.3 |
| 20260903170049 | 64 | 243 | 1.0 | 6.0 | 0.00 | 0.06 | 0.00 | 58 | 1009.3 |
| 20260903164531 | 62 | 234 | 3.0 | 7.0 | 0.00 | 0.06 | 0.00 | 62 | 1009.4 |
| 20260903163033 | 59 | 341 | 1.0 | 3.0 | 0.00 | 0.06 | 0.00 | 70 | 1009.4 |
| 20260903161522 | 56 | 314 | 1.0 | 2.0 | 0.00 | 0.06 | 0.00 | 74 | 1009.4 |
| 20260903160018 | 53 | 360 | 2.0 | 4.0 | 0.00 | 0.06 | 0.00 | 79 | 1009.4 |
| 20260903154513 | 52 | 320 | 1.0 | 3.0 | 0.00 | 0.06 | 0.00 | 83 | 1009.4 |
| 20260903153011 | 51 | 319 | 2.0 | 3.0 | 0.00 | 0.06 | 0.00 | 84 | 1009.6 |
| 20260903151510 | 50 | 320 | 0.0 | 2.0 | 0.00 | 0.06 | 0.00 | 85 | 1009.5 |
| 20260903150010 | 49 | 320 | 0.0 | 2.0 | 0.00 | 0.06 | 0.00 | 88 | 1009.6 |
| 20260903144508 | 48 | 319 | 0.0 | 2.0 | 0.00 | 0.06 | 0.00 | 90 | 1009.6 |
| 20260903143007 | 47 | 320 | 0.0 | 2.0 | 0.00 | 0.06 | 0.00 | 92 | 1009.5 |
| 20260903141505 | 45 | 319 | 0.0 | 2.0 | 0.00 | 0.06 | 0.00 | 92 | 1009.4 |
| 20260903140001 | 44 | 320 | 3.0 | 4.0 | 0.00 | 0.06 | 0.00 | 92 | 1009.2 |
| 20260903134557 | 42 | 225 | 2.0 | 3.0 | 0.00 | 0.06 | 0.00 | 92 | 1009.0 |
| 20260903133054 | 40 | 225 | 0.0 | 1.0 | 0.00 | 0.06 | 0.00 | 91 | 1008.9 |
| 20260903131551 | 40 | 225 | 2.0 | 3.0 | 0.00 | 0.06 | 0.00 | 91 | 1008.8 |
| 20260903130049 | 40 | 225 | 2.0 | 3.0 | 0.00 | 0.06 | 0.00 | 91 | 1008.5 |
| 20260903124600 | 38 | 225 | 0.0 | 3.0 | 0.00 | 0.06 | 0.00 | 90 | 1008.4 |
| 20260903123045 | 39 | 225 | 1.0 | 3.0 | 0.00 | 0.06 | 0.00 | 91 | 1008.1 |
| 20260903121548 | 39 | 225 | 1.0 | 3.0 | 0.00 | 0.06 | 0.00 | 90 | 1008.3 |
| 20260903120045 | 39 | 225 | 2.0 | 4.0 | 0.00 | 0.06 | 0.00 | 91 | 1008.0 |
| 20260903114556 | 39 | 225 | 0.0 | 3.0 | 0.00 | 0.06 | 0.00 | 89 | 1008.2 |
| 20260903113040 | 41 | 225 | 0.0 | 3.0 | 0.00 | 0.06 | 0.00 | 91 | 1008.4 |
| 20260903111540 | 40 | 225 | 0.0 | 2.0 | 0.00 | 0.06 | 0.00 | 91 | 1008.3 |
| 20260903110043 | 40 | 225 | 0.0 | 0.0 | 0.00 | 0.06 | 0.00 | 90 | 1008.4 |
| 20260903104537 | 40 | 225 | 0.0 | 2.0 | 0.00 | 0.06 | 0.00 | 90 | 1008.5 |
| 20260903103044 | 40 | 225 | 0.0 | 5.0 | 0.00 | 0.06 | 0.00 | 90 | 1008.6 |
| 20260903101541 | 40 | 225 | 0.0 | 3.0 | 0.00 | 0.06 | 0.00 | 88 | 1008.4 |
| 20260903100033 | 41 | 225 | 1.0 | 2.0 | 0.00 | 0.06 | 0.00 | 87 | 1008.3 |
| 20260903094526 | 43 | 225 | 1.0 | 4.0 | 0.00 | 0.06 | 0.00 | 88 | 1008.2 |
| 20260903093045 | 43 | 225 | 2.0 | 3.0 | 0.00 | 0.06 | 0.00 | 87 | 1008.2 |
| 20260903091519 | 44 | 225 | 0.0 | 1.0 | 0.00 | 0.06 | 0.00 | 85 | 1008.0 |
| 20260903090017 | 45 | 225 | 2.0 | 3.0 | 0.00 | 0.06 | 0.00 | 86 | 1007.9 |
| 20260903084515 | 45 | 225 | 1.0 | 3.0 | 0.00 | 0.06 | 0.00 | 84 | 1007.9 |
| 20260903083015 | 46 | 225 | 3.0 | 5.0 | 0.00 | 0.06 | 0.00 | 83 | 1008.0 |
| 20260903081527 | 45 | 225 | 0.0 | 3.0 | 0.00 | 0.06 | 0.00 | 86 | 1007.8 |
| 20260903080010 | 46 | 225 | 2.0 | 3.0 | 0.00 | 0.06 | 0.00 | 85 | 1007.9 |
| 20260903074506 | 47 | 225 | 2.0 | 5.0 | 0.00 | 0.06 | 0.00 | 84 | 1007.9 |
| 20260903073004 | 48 | 225 | 1.0 | 5.0 | 0.00 | 0.06 | 0.00 | 86 | 1007.9 |
| 20260903071502 | 48 | 225 | 2.0 | 5.0 | 0.00 | 0.06 | 0.00 | 85 | 1007.9 |
| 20260903070104 | 49 | 225 | 0.0 | 0.0 | 0.00 | 0.06 | 0.00 | 83 | 1007.6 |
| 20260903064605 | 50 | 225 | 0.0 | 1.0 | 0.00 | 0.06 | 0.00 | 84 | 1007.7 |
| 20260903063103 | 49 | 225 | 0.0 | 3.0 | 0.00 | 0.06 | 0.00 | 85 | 1007.9 |
| 20260903061552 | 50 | 225 | 1.0 | 4.0 | 0.00 | 0.06 | 0.00 | 82 | 1008.0 |
| 20260903060050 | 52 | 225 | 1.0 | 3.0 | 0.00 | 0.06 | 0.00 | 78 | 1007.8 |
| 20260903054549 | 53 | 225 | 1.0 | 4.0 | 0.00 | 0.06 | 0.06 | 78 | 1007.8 |
| 20260903053047 | 53 | 200 | 4.0 | 6.0 | 0.00 | 0.06 | 0.06 | 78 | 1008.1 |
| 20260903051546 | 52 | 198 | 5.0 | 9.0 | 0.00 | 0.06 | 0.06 | 81 | 1008.0 |